Corbin, Kentucky, United States (40701)
Lat: 36.95N, Lon: 84.1W
Wx Zone: KYZ085
Local Info
Past Weather Observations for Today

NOTE: This archive is for the closest National Weather Service station to Corbin. Information may differ from the station used for current weather conditions.

Click here for Long-term Archive

Time Weather Temperature Dewpoint Humidity Pressure Winds Precip Visibility
19:53
Clear
79°F / 26°C 64°F / 18°C 61% 30.09 in
(1019 mb)
NE 4.6 mph
(NE 7 kph)
- 10SM
18:53
Clear
82°F / 28°C 64°F / 18°C 55% 30.06 in
(1018 mb)
NE 3.5 mph
(NE 6 kph)
- 10SM
17:53
Clear
90°F / 32°C 63°F / 17°C 41% 30.06 in
(1018 mb)
NNW 5.8 mph
(NNW 9 kph)
- 10SM
16:53
Clear
90°F / 32°C 61°F / 16°C 38% 30.04 in
(1017 mb)
Calm - 10SM
15:53
Clear
91°F / 33°C 61°F / 16°C 36% 30.04 in
(1017 mb)
Variable 5.8 mph
(Variable 9 kph)
- 10SM
14:53
Partly Cloudy
91°F / 33°C 61°F / 16°C 36% 30.06 in
(1018 mb)
Calm - 10SM
13:53
Clear
90°F / 32°C 61°F / 16°C 38% 30.09 in
(1019 mb)
E 5.8 mph
(E 9 kph)
- 10SM
12:53
Clear
88°F / 31°C 63°F / 17°C 43% 30.09 in
(1019 mb)
ESE 5.8 mph
(ESE 9 kph)
- 10SM
11:53
Partly Cloudy
90°F / 32°C 64°F / 18°C 43% 30.09 in
(1019 mb)
Variable 5.8 mph
(Variable 9 kph)
- 10SM
10:53
Clear
88°F / 31°C 64°F / 18°C 46% 30.09 in
(1019 mb)
Calm - 10SM
09:53
Clear
82°F / 28°C 66°F / 19°C 58% 30.09 in
(1019 mb)
Variable 3.5 mph
(Variable 6 kph)
- 10SM
08:53
Clear
75°F / 24°C 66°F / 19°C 74% 30.09 in
(1019 mb)
Calm - 8SM
07:53
Clear
Hazy
70°F / 21°C 64°F / 18°C 83% 30.09 in
(1019 mb)
Calm - 3SM
07:39
Partly Cloudy
Fog And Mist
68°F / 20°C 64°F / 18°C 88% 30.09 in
(1019 mb)
Calm - 2 1/2SM
06:53
Clear
Hazy
66°F / 19°C 63°F / 17°C 88% 30.09 in
(1019 mb)
Calm - 4SM
06:09
Partly Cloudy
Fog And Mist
66°F / 19°C 63°F / 17°C 88% 30.06 in
(1018 mb)
Calm - 4SM
06:02
Partly Cloudy
Fog And Mist
66°F / 19°C 63°F / 17°C 88% 30.06 in
(1018 mb)
Calm - 2 1/2SM
05:53
Obscured
Fog
66°F / 19°C 63°F / 17°C 88% 30.06 in
(1018 mb)
Calm - 1/2SM
05:47
Clear
Fog And Mist
64°F / 18°C 63°F / 17°C 94% 30.06 in
(1018 mb)
Calm - 1 3/4SM
05:20
Partly Cloudy
Fog And Mist
66°F / 19°C 63°F / 17°C 88% 30.06 in
(1018 mb)
Calm - 4SM
05:12
Partly Cloudy
Fog And Mist
66°F / 19°C 63°F / 17°C 88% 30.06 in
(1018 mb)
Calm - 2 1/2SM
04:57
Partly Cloudy
Fog And Mist
66°F / 19°C 63°F / 17°C 88% 30.06 in
(1018 mb)
Calm - 1 3/4SM
04:53
Clear
Fog And Mist
66°F / 19°C 63°F / 17°C 88% 30.04 in
(1017 mb)
Calm - 3SM
04:42
Clear
Fog And Mist
66°F / 19°C 63°F / 17°C 88% 30.04 in
(1017 mb)
Calm - 3SM
04:33
Clear
Fog And Mist
66°F / 19°C 63°F / 17°C 88% 30.04 in
(1017 mb)
Calm - 1 3/4SM
03:53
Clear
Fog And Mist
66°F / 19°C 63°F / 17°C 88% 30.04 in
(1017 mb)
Calm - 3SM
02:53
Clear
Hazy
68°F / 20°C 63°F / 17°C 83% 30.04 in
(1017 mb)
Calm - 3SM
01:53
Clear
Hazy
70°F / 21°C 64°F / 18°C 83% 30.01 in
(1016 mb)
Calm - 4SM
00:53
Clear
Fog And Mist
70°F / 21°C 64°F / 18°C 83% 30.01 in
(1016 mb)
Calm - 4SM
Time Weather Temperature Dewpoint Humidity Pressure Winds Precip Visibility


Weather for websites

WeatherForYou.com, LLC is not responsible for any damages or problems caused by this service. Current weather conditions are obtained from the closest station including government and personal stations which may have varying degrees of accuracy. Weather forecasts are derived from the NOAA NDFD. Like all things, this site belongs to Jesus Christ... He just trusts us to maintain it. If you have any questions or comments email webmaster@weatherforyou.com

Copyright © 2015, WeatherForYou.com LLC. All rights reserved.